Time,TemperatureF,DewpointF,PressureIn,WindDirection,WindDirectionDegrees,WindSpeedMPH,WindSpeedGustMPH,Humidity,HourlyPrecipIn,Conditions,Clouds,dailyrainin,SoftwareType,DateUTC
2013-05-08 00:02:00,74.0,64.0,26.41,North,1,6.0,12.0,72,0.00,,,0.00,,2013-05-08 04:02:00,
2013-05-08 00:13:00,74.0,64.0,26.41,North,1,6.0,12.0,72,0.00,,,0.00,,2013-05-08 04:13:00,
2013-05-08 00:23:00,74.0,64.0,26.41,North,9,0.0,10.0,72,0.00,,,0.00,,2013-05-08 04:23:00,
2013-05-08 00:33:00,74.0,64.0,26.41,NNE,18,5.0,7.0,71,0.00,,,0.00,,2013-05-08 04:33:00,
2013-05-08 00:43:00,74.0,64.0,26.41,NNE,18,5.0,7.0,71,0.00,,,0.00,,2013-05-08 04:43:00,
2013-05-08 00:53:00,74.0,64.0,26.41,NNE,18,4.0,9.0,71,0.00,,,0.00,,2013-05-08 04:53:00,
2013-05-08 01:02:00,73.0,63.0,26.41,NNE,17,1.0,9.0,71,0.00,,,0.00,,2013-05-08 05:02:00,
2013-05-08 01:12:00,73.0,63.0,26.41,NNE,17,1.0,9.0,71,0.00,,,0.00,,2013-05-08 05:12:00,
2013-05-08 01:22:00,73.0,63.0,26.41,NNE,15,2.0,8.0,70,0.00,,,0.00,,2013-05-08 05:22:00,
2013-05-08 01:32:00,73.0,63.0,26.41,NNE,16,4.0,6.0,70,0.00,,,0.00,,2013-05-08 05:32:00,
2013-05-08 01:42:00,73.0,63.0,26.41,NNE,16,4.0,6.0,70,0.00,,,0.00,,2013-05-08 05:42:00,
2013-05-08 01:52:00,73.0,63.0,26.41,NNE,16,0.0,1.0,70,0.00,,,0.00,,2013-05-08 05:52:00,
2013-05-08 02:02:00,73.0,63.0,26.41,NNE,16,0.0,5.0,70,0.00,,,0.00,,2013-05-08 06:02:00,
2013-05-08 02:12:00,73.0,63.0,26.41,NNE,16,0.0,5.0,70,0.00,,,0.00,,2013-05-08 06:12:00,
2013-05-08 02:21:00,72.0,62.0,26.41,NNE,16,0.0,4.0,71,0.00,,,0.00,,2013-05-08 06:21:00,
2013-05-08 02:32:00,72.0,62.0,26.41,NNE,16,4.0,6.0,71,0.00,,,0.00,,2013-05-08 06:32:00,
2013-05-08 02:42:00,72.0,62.0,26.41,NNE,16,4.0,6.0,71,0.00,,,0.00,,2013-05-08 06:42:00,
2013-05-08 02:52:00,72.0,62.0,26.41,North,11,3.0,5.0,71,0.00,,,0.00,,2013-05-08 06:52:00,
2013-05-08 03:02:00,72.0,62.0,26.41,North,11,0.0,2.0,72,0.00,,,0.00,,2013-05-08 07:02:00,
2013-05-08 03:11:00,72.0,62.0,26.41,North,11,0.0,2.0,72,0.00,,,0.00,,2013-05-08 07:11:00,
2013-05-08 03:22:00,72.0,63.0,26.41,North,11,0.0,0.0,73,0.00,,,0.00,,2013-05-08 07:22:00,
2013-05-08 03:32:00,71.0,62.0,26.41,North,11,0.0,0.0,74,0.00,,,0.00,,2013-05-08 07:32:00,
2013-05-08 03:42:00,71.0,62.0,26.41,North,11,0.0,0.0,74,0.00,,,0.00,,2013-05-08 07:42:00,
2013-05-08 03:52:00,71.0,62.0,26.41,North,11,1.0,4.0,74,0.00,,,0.00,,2013-05-08 07:52:00,
2013-05-08 04:02:00,71.0,62.0,26.41,North,11,0.0,1.0,74,0.00,,,0.00,,2013-05-08 08:02:00,
2013-05-08 04:12:00,71.0,62.0,26.41,North,11,0.0,1.0,74,0.00,,,0.00,,2013-05-08 08:12:00,
2013-05-08 04:21:00,71.0,62.0,26.41,North,11,0.0,0.0,74,0.00,,,0.00,,2013-05-08 08:21:00,
2013-05-08 04:32:00,71.0,62.0,26.41,North,11,0.0,0.0,74,0.00,,,0.00,,2013-05-08 08:32:00,
2013-05-08 04:42:00,71.0,62.0,26.41,North,11,0.0,0.0,74,0.00,,,0.00,,2013-05-08 08:42:00,
2013-05-08 04:52:00,70.0,62.0,26.41,North,11,0.0,0.0,75,0.00,,,0.00,,2013-05-08 08:52:00,
2013-05-08 05:02:00,70.0,62.0,26.41,North,11,0.0,0.0,75,0.00,,,0.00,,2013-05-08 09:02:00,
2013-05-08 05:11:00,70.0,62.0,26.41,North,11,0.0,0.0,75,0.00,,,0.00,,2013-05-08 09:11:00,
2013-05-08 05:21:00,70.0,62.0,26.41,North,11,0.0,0.0,75,0.00,,,0.00,,2013-05-08 09:21:00,
2013-05-08 05:32:00,70.0,62.0,26.41,North,11,0.0,0.0,75,0.00,,,0.00,,2013-05-08 09:32:00,
2013-05-08 05:42:00,70.0,62.0,26.41,North,11,0.0,0.0,75,0.00,,,0.00,,2013-05-08 09:42:00,
2013-05-08 05:53:00,70.0,62.0,26.41,North,11,0.0,0.0,75,0.00,,,0.00,,2013-05-08 09:53:00,
2013-05-08 06:02:00,70.0,62.0,26.41,North,11,0.0,0.0,75,0.00,,,0.00,,2013-05-08 10:02:00,
2013-05-08 06:12:00,70.0,62.0,26.41,North,11,0.0,0.0,75,0.00,,,0.00,,2013-05-08 10:12:00,
2013-05-08 06:22:00,70.0,62.0,26.41,North,11,0.0,0.0,76,0.00,,,0.00,,2013-05-08 10:22:00,
2013-05-08 06:33:00,70.0,62.0,26.41,North,11,0.0,2.0,76,0.00,,,0.00,,2013-05-08 10:33:00,
2013-05-08 06:42:00,70.0,62.0,26.41,North,11,0.0,2.0,76,0.00,,,0.00,,2013-05-08 10:42:00,
2013-05-08 06:53:00,70.0,62.0,26.41,North,11,0.0,0.0,76,0.00,,,0.00,,2013-05-08 10:53:00,
2013-05-08 07:02:00,70.0,62.0,26.41,North,11,0.0,0.0,76,0.00,,,0.00,,2013-05-08 11:02:00,
2013-05-08 07:11:00,70.0,62.0,26.41,North,11,0.0,0.0,76,0.00,,,0.00,,2013-05-08 11:11:00,
2013-05-08 07:22:00,70.0,62.0,26.41,North,11,0.0,0.0,77,0.00,,,0.00,,2013-05-08 11:22:00,
2013-05-08 07:32:00,70.0,62.0,26.41,North,11,0.0,0.0,77,0.00,,,0.00,,2013-05-08 11:32:00,
2013-05-08 07:42:00,70.0,62.0,26.41,North,11,0.0,0.0,77,0.00,,,0.00,,2013-05-08 11:42:00,
2013-05-08 07:52:00,71.0,63.0,26.41,North,11,0.0,0.0,76,0.00,,,0.00,,2013-05-08 11:52:00,
2013-05-08 08:01:00,71.0,62.0,26.41,North,11,0.0,0.0,74,0.00,,,0.00,,2013-05-08 12:01:00,
2013-05-08 08:11:00,71.0,62.0,26.41,North,11,0.0,0.0,74,0.00,,,0.00,,2013-05-08 12:11:00,
2013-05-08 08:21:00,73.0,63.0,26.41,North,11,0.0,0.0,71,0.00,,,0.00,,2013-05-08 12:21:00,
2013-05-08 08:32:00,73.0,63.0,26.41,North,11,0.0,0.0,70,0.00,,,0.00,,2013-05-08 12:32:00,
2013-05-08 08:42:00,73.0,63.0,26.41,North,11,0.0,0.0,70,0.00,,,0.00,,2013-05-08 12:42:00,
2013-05-08 08:52:00,75.0,63.0,26.41,East,86,0.0,3.0,66,0.00,,,0.00,,2013-05-08 12:52:00,
2013-05-08 09:01:00,76.0,63.0,26.41,East,86,1.0,3.0,64,0.00,,,0.00,,2013-05-08 13:01:00,
2013-05-08 09:11:00,76.0,63.0,26.41,East,86,1.0,3.0,64,0.00,,,0.00,,2013-05-08 13:11:00,
2013-05-08 09:21:00,77.0,64.0,26.41,ENE,75,1.0,5.0,65,0.00,,,0.00,,2013-05-08 13:21:00,
2013-05-08 09:32:00,78.0,66.0,26.41,ENE,75,1.0,7.0,66,0.00,,,0.00,,2013-05-08 13:32:00,
2013-05-08 09:42:00,78.0,66.0,26.41,ENE,75,1.0,7.0,66,0.00,,,0.00,,2013-05-08 13:42:00,
2013-05-08 09:52:00,78.0,67.0,26.41,East,87,0.0,11.0,69,0.00,,,0.00,,2013-05-08 13:52:00,
2013-05-08 10:02:00,78.0,67.0,26.41,East,87,0.0,0.0,68,0.00,,,0.00,,2013-05-08 14:02:00,
2013-05-08 10:11:00,78.0,67.0,26.41,East,87,0.0,0.0,68,0.00,,,0.00,,2013-05-08 14:11:00,
2013-05-08 10:21:00,78.0,66.0,26.41,East,87,0.0,0.0,67,0.00,,,0.00,,2013-05-08 14:21:00,
2013-05-08 10:32:00,78.0,66.0,26.41,East,87,0.0,0.0,67,0.00,,,0.00,,2013-05-08 14:32:00,
2013-05-08 10:42:00,78.0,66.0,26.41,East,87,0.0,0.0,67,0.00,,,0.00,,2013-05-08 14:42:00,
2013-05-08 10:52:00,79.0,67.0,26.41,East,86,0.0,4.0,67,0.00,,,0.00,,2013-05-08 14:52:00,
2013-05-08 11:02:00,79.0,67.0,26.41,East,86,4.0,7.0,67,0.00,,,0.00,,2013-05-08 15:02:00,
2013-05-08 11:11:00,79.0,67.0,26.41,East,86,4.0,7.0,67,0.00,,,0.00,,2013-05-08 15:11:00,
2013-05-08 11:21:00,80.0,68.0,26.41,East,87,6.0,9.0,68,0.00,,,0.00,,2013-05-08 15:21:00,
2013-05-08 11:33:00,80.0,68.0,26.41,East,88,0.0,6.0,66,0.00,,,0.00,,2013-05-08 15:33:00,
2013-05-08 11:42:00,80.0,68.0,26.41,East,88,0.0,6.0,66,0.00,,,0.00,,2013-05-08 15:42:00,
2013-05-08 11:53:00,81.0,69.0,26.41,East,82,4.0,10.0,66,0.00,,,0.00,,2013-05-08 15:53:00,
2013-05-08 12:03:00,81.0,69.0,26.41,East,86,6.0,9.0,66,0.00,,,0.00,,2013-05-08 16:03:00,
2013-05-08 12:12:00,81.0,69.0,26.41,East,86,6.0,9.0,66,0.00,,,0.00,,2013-05-08 16:12:00,
2013-05-08 12:23:00,82.0,68.0,26.41,East,94,4.0,7.0,63,0.00,,,0.00,,2013-05-08 16:23:00,
2013-05-08 12:33:00,82.0,69.0,26.41,East,95,4.0,7.0,64,0.00,,,0.00,,2013-05-08 16:33:00,
2013-05-08 12:42:00,82.0,69.0,26.41,East,95,4.0,7.0,64,0.00,,,0.00,,2013-05-08 16:42:00,
2013-05-08 12:52:00,83.0,68.0,26.41,East,98,0.0,0.0,60,0.00,,,0.00,,2013-05-08 16:52:00,
2013-05-08 13:02:00,84.0,68.0,26.41,East,98,4.0,5.0,58,0.00,,,0.00,,2013-05-08 17:02:00,
2013-05-08 13:12:00,84.0,68.0,26.41,East,98,4.0,5.0,58,0.00,,,0.00,,2013-05-08 17:12:00,
2013-05-08 13:22:00,85.0,68.0,26.41,East,99,3.0,6.0,57,0.00,,,0.00,,2013-05-08 17:22:00,
2013-05-08 13:32:00,85.0,68.0,26.41,East,99,3.0,6.0,57,0.00,,,0.00,,2013-05-08 17:32:00,
2013-05-08 13:41:00,85.0,68.0,26.41,East,99,3.0,6.0,57,0.00,,,0.00,,2013-05-08 17:41:00,
2013-05-08 13:52:00,84.0,67.0,26.41,East,98,0.0,5.0,56,0.00,,,0.00,,2013-05-08 17:52:00,
2013-05-08 14:02:00,85.0,68.0,26.41,East,99,0.0,6.0,56,0.00,,,0.00,,2013-05-08 18:02:00,
2013-05-08 14:12:00,85.0,68.0,26.41,East,99,0.0,6.0,56,0.00,,,0.00,,2013-05-08 18:12:00,
2013-05-08 14:21:00,86.0,69.0,26.41,East,99,4.0,7.0,58,0.00,,,0.00,,2013-05-08 18:21:00,
2013-05-08 14:32:00,86.0,68.0,26.41,East,100,4.0,6.0,56,0.00,,,0.00,,2013-05-08 18:32:00,
2013-05-08 14:42:00,87.0,70.0,26.41,East,101,7.0,9.0,57,0.00,,,0.00,,2013-05-08 18:42:00,
2013-05-08 14:52:00,87.0,70.0,26.41,East,101,7.0,9.0,57,0.00,,,0.00,,2013-05-08 18:52:00,
2013-05-08 15:01:00,87.0,70.0,26.41,ESE,105,4.0,8.0,58,0.00,,,0.00,,2013-05-08 19:01:00,
2013-05-08 15:11:00,87.0,70.0,26.41,ESE,105,4.0,8.0,58,0.00,,,0.00,,2013-05-08 19:11:00,
2013-05-08 15:22:00,86.0,70.0,26.41,ESE,105,6.0,9.0,60,0.00,,,0.00,,2013-05-08 19:22:00,
2013-05-08 15:32:00,87.0,68.0,26.41,ESE,105,3.0,7.0,54,0.00,,,0.00,,2013-05-08 19:32:00,
2013-05-08 15:42:00,87.0,68.0,26.41,ESE,105,3.0,7.0,54,0.00,,,0.00,,2013-05-08 19:42:00,
2013-05-08 15:52:00,87.0,69.0,26.41,ESE,105,0.0,7.0,56,0.00,,,0.00,,2013-05-08 19:52:00,
2013-05-08 16:02:00,87.0,68.0,26.41,ESE,105,0.0,0.0,54,0.00,,,0.00,,2013-05-08 20:02:00,
2013-05-08 16:11:00,87.0,68.0,26.41,ESE,105,0.0,0.0,54,0.00,,,0.00,,2013-05-08 20:11:00,
2013-05-08 16:22:00,87.0,69.0,26.41,ESE,105,0.0,0.0,56,0.00,,,0.00,,2013-05-08 20:22:00,
2013-05-08 16:32:00,87.0,69.0,26.41,ESE,105,0.0,0.0,56,0.00,,,0.00,,2013-05-08 20:32:00,
2013-05-08 16:42:00,86.0,68.0,30.72,ESE,105,0.0,0.0,55,0.00,,,0.00,,2013-05-08 20:42:00,
2013-05-08 16:52:00,86.0,68.0,30.72,ESE,105,0.0,0.0,55,0.00,,,0.00,,2013-05-08 20:52:00,
2013-05-08 17:01:00,86.0,69.0,30.72,ESE,105,7.0,14.0,58,0.00,,,0.00,,2013-05-08 21:01:00,
2013-05-08 17:12:00,87.0,68.0,30.72,ESE,105,0.0,4.0,54,0.00,,,0.00,,2013-05-08 21:12:00,
2013-05-08 17:21:00,87.0,68.0,30.72,ESE,105,0.0,4.0,54,0.00,,,0.00,,2013-05-08 21:21:00,
2013-05-08 17:33:00,86.0,68.0,30.72,ESE,105,0.0,0.0,55,0.00,,,0.00,,2013-05-08 21:33:00,
2013-05-08 17:43:00,86.0,68.0,30.72,ESE,105,0.0,0.0,56,0.00,,,0.00,,2013-05-08 21:43:00,
2013-05-08 17:53:00,86.0,68.0,30.72,ESE,105,0.0,0.0,56,0.00,,,0.00,,2013-05-08 21:53:00,
2013-05-08 18:03:00,85.0,68.0,26.41,ESE,105,0.0,0.0,57,0.00,,,0.00,,2013-05-08 22:03:00,
2013-05-08 18:12:00,84.0,69.0,26.41,ESE,105,0.0,0.0,60,0.00,,,0.00,,2013-05-08 22:12:00,
2013-05-08 18:22:00,84.0,69.0,26.41,ESE,105,0.0,0.0,60,0.00,,,0.00,,2013-05-08 22:22:00,
2013-05-08 18:33:00,83.0,67.0,26.41,ESE,105,0.0,0.0,58,0.00,,,0.00,,2013-05-08 22:33:00,
2013-05-08 18:42:00,82.0,67.0,31.20,ESE,105,0.0,0.0,60,0.00,,,0.00,,2013-05-08 22:42:00,
2013-05-08 18:53:00,82.0,67.0,31.20,ESE,105,0.0,0.0,60,0.00,,,0.00,,2013-05-08 22:53:00,
2013-05-08 19:01:00,81.0,67.0,31.20,ESE,105,2.0,46.0,63,0.00,,,0.00,,2013-05-08 23:01:00,
2013-05-08 19:12:00,80.0,67.0,31.20,ESE,105,0.0,0.0,64,0.00,,,0.00,,2013-05-08 23:12:00,
2013-05-08 19:22:00,80.0,67.0,31.20,ESE,105,0.0,0.0,64,0.00,,,0.00,,2013-05-08 23:22:00,
2013-05-08 19:32:00,80.0,67.0,31.20,ESE,105,0.0,0.0,65,0.00,,,0.00,,2013-05-08 23:32:00,
2013-05-08 19:42:00,78.0,66.0,31.20,ESE,105,0.0,2.0,66,0.00,,,0.00,,2013-05-08 23:42:00,
2013-05-08 19:52:00,78.0,66.0,31.20,ESE,105,0.0,2.0,66,0.00,,,0.00,,2013-05-08 23:52:00,
2013-05-08 20:02:00,77.0,65.0,31.20,ESE,105,0.0,0.0,67,0.00,,,0.00,,2013-05-09 00:02:00,
2013-05-08 20:12:00,77.0,66.0,31.20,ESE,105,0.0,1.0,68,0.00,,,0.00,,2013-05-09 00:12:00,
2013-05-08 20:21:00,77.0,66.0,31.20,ESE,105,0.0,1.0,68,0.00,,,0.00,,2013-05-09 00:21:00,
2013-05-08 20:32:00,76.0,65.0,22.19,ESE,105,0.0,1.0,69,0.00,,,0.00,,2013-05-09 00:32:00,
2013-05-08 20:42:00,76.0,65.0,22.19,ESE,105,0.0,0.0,70,0.00,,,0.00,,2013-05-09 00:42:00,
2013-05-08 20:52:00,76.0,65.0,22.19,ESE,105,0.0,0.0,70,0.00,,,0.00,,2013-05-09 00:52:00,
2013-05-08 21:01:00,76.0,66.0,22.19,ESE,105,0.0,3.0,71,0.00,,,0.00,,2013-05-09 01:01:00,
2013-05-08 21:12:00,76.0,66.0,22.19,ESE,105,0.0,0.0,72,0.00,,,0.00,,2013-05-09 01:12:00,
2013-05-08 21:22:00,76.0,66.0,22.19,ESE,105,0.0,0.0,72,0.00,,,0.00,,2013-05-09 01:22:00,
2013-05-08 21:32:00,76.0,66.0,22.19,ESE,105,0.0,0.0,72,0.00,,,0.00,,2013-05-09 01:32:00,
2013-05-08 21:42:00,76.0,66.0,22.19,ESE,105,0.0,0.0,72,0.00,,,0.00,,2013-05-09 01:42:00,
2013-05-08 21:52:00,76.0,66.0,22.19,ESE,105,0.0,0.0,72,0.00,,,0.00,,2013-05-09 01:52:00,
2013-05-08 22:02:00,76.0,67.0,22.19,ESE,105,0.0,0.0,73,0.00,,,0.00,,2013-05-09 02:02:00,
2013-05-08 22:12:00,77.0,68.0,22.19,ESE,105,0.0,0.0,74,0.00,,,0.00,,2013-05-09 02:12:00,
2013-05-08 22:22:00,77.0,68.0,22.19,ESE,105,0.0,0.0,74,0.00,,,0.00,,2013-05-09 02:22:00,
2013-05-08 22:32:00,77.0,68.0,22.19,ESE,105,0.0,0.0,75,0.00,,,0.00,,2013-05-09 02:32:00,
2013-05-08 22:42:00,77.0,68.0,22.19,ESE,105,0.0,0.0,75,0.00,,,0.00,,2013-05-09 02:42:00,
2013-05-08 22:52:00,77.0,68.0,22.19,ESE,105,0.0,0.0,75,0.00,,,0.00,,2013-05-09 02:52:00,
2013-05-08 23:01:00,77.0,70.0,22.19,ESE,105,0.0,0.0,78,0.00,,,0.00,,2013-05-09 03:01:00,
2013-05-08 23:11:00,77.0,70.0,22.19,ESE,105,0.0,0.0,78,0.00,,,0.00,,2013-05-09 03:11:00,
2013-05-08 23:21:00,77.0,69.0,22.19,ESE,105,0.0,0.0,77,0.00,,,0.00,,2013-05-09 03:21:00,
2013-05-08 23:33:00,77.0,70.0,22.19,ESE,105,4.0,7.0,78,0.00,,,0.00,,2013-05-09 03:33:00,
2013-05-08 23:43:00,76.0,69.0,22.19,ESE,105,5.0,7.0,78,0.00,,,0.00,,2013-05-09 03:43:00,
2013-05-08 23:53:00,76.0,69.0,22.19,ESE,105,5.0,7.0,78,0.00,,,0.00,,2013-05-09 03:53:00,